Year,Month,Day,Hour,Minute,Value (Times are PST for temperature in C)
2017,05,28,00,00,16.40
2017,05,28,00,01,16.30
2017,05,28,00,02,16.30
2017,05,28,00,03,16.30
2017,05,28,00,04,16.20
2017,05,28,00,05,16.20
2017,05,28,00,06,16.20
2017,05,28,00,07,16.10
2017,05,28,00,08,16.10
2017,05,28,00,09,16.10
2017,05,28,00,10,16.10
2017,05,28,00,11,16.10
2017,05,28,00,12,16.00
2017,05,28,00,13,16.00
2017,05,28,00,14,16.00
2017,05,28,00,15,15.90
2017,05,28,00,16,15.90
2017,05,28,00,17,15.90
2017,05,28,00,18,15.90
2017,05,28,00,19,15.80
2017,05,28,00,20,15.80
2017,05,28,00,21,15.80
2017,05,28,00,22,15.80
2017,05,28,00,23,15.80
2017,05,28,00,24,15.70
2017,05,28,00,25,15.70
2017,05,28,00,26,15.70
2017,05,28,00,27,15.70
2017,05,28,00,28,15.60
2017,05,28,00,29,15.60
2017,05,28,00,30,15.60
2017,05,28,00,31,15.60
2017,05,28,00,32,15.60
2017,05,28,00,33,15.60
2017,05,28,00,34,15.60
2017,05,28,00,35,15.60
2017,05,28,00,36,15.60
2017,05,28,00,37,15.50
2017,05,28,00,38,15.50
2017,05,28,00,39,15.40
2017,05,28,00,40,15.40
2017,05,28,00,41,15.40
2017,05,28,00,42,15.40
2017,05,28,00,43,15.40
2017,05,28,00,44,15.30
2017,05,28,00,45,15.30
2017,05,28,00,46,15.30
2017,05,28,00,47,15.30
2017,05,28,00,48,15.20
2017,05,28,00,49,15.20
2017,05,28,00,50,15.20
2017,05,28,00,51,15.10
2017,05,28,00,52,15.10
2017,05,28,00,53,15.10
2017,05,28,00,54,15.00
2017,05,28,00,55,15.00
2017,05,28,00,56,15.00
2017,05,28,00,57,14.90
2017,05,28,00,58,14.90
2017,05,28,00,59,14.90
2017,05,28,01,00,14.90
2017,05,28,01,01,14.90
2017,05,28,01,02,14.90
2017,05,28,01,03,14.90
2017,05,28,01,04,14.90
2017,05,28,01,05,14.90
2017,05,28,01,06,14.90
2017,05,28,01,07,14.90
2017,05,28,01,08,14.90
2017,05,28,01,09,14.80
2017,05,28,01,10,14.80
2017,05,28,01,11,14.80
2017,05,28,01,12,14.80
2017,05,28,01,13,14.70
2017,05,28,01,14,14.70
2017,05,28,01,15,14.70
2017,05,28,01,16,14.60
2017,05,28,01,17,14.60
2017,05,28,01,18,14.60
2017,05,28,01,19,14.60
2017,05,28,01,20,14.50
2017,05,28,01,21,14.50
2017,05,28,01,22,14.50
2017,05,28,01,23,14.50
2017,05,28,01,24,14.40
2017,05,28,01,25,14.40
2017,05,28,01,26,14.40
2017,05,28,01,27,14.30
2017,05,28,01,28,14.30
2017,05,28,01,29,14.30
2017,05,28,01,30,14.30
2017,05,28,01,31,14.20
2017,05,28,01,32,14.20
2017,05,28,01,33,14.20
2017,05,28,01,34,14.20
2017,05,28,01,35,14.20
2017,05,28,01,36,14.20
2017,05,28,01,37,14.10
2017,05,28,01,38,14.00
2017,05,28,01,39,14.00
2017,05,28,01,40,14.00
2017,05,28,01,41,13.90
2017,05,28,01,42,13.90
2017,05,28,01,43,13.90
2017,05,28,01,44,13.90
2017,05,28,01,45,13.90
2017,05,28,01,46,13.80
2017,05,28,01,47,13.80
2017,05,28,01,48,13.80
2017,05,28,01,49,13.80
2017,05,28,01,50,13.80
2017,05,28,01,51,13.80
2017,05,28,01,52,13.80
2017,05,28,01,53,13.80
2017,05,28,01,54,13.70
2017,05,28,01,55,13.70
2017,05,28,01,56,13.70
2017,05,28,01,57,13.70
2017,05,28,01,58,13.70
2017,05,28,01,59,13.70
2017,05,28,02,00,13.70
2017,05,28,02,01,13.60
2017,05,28,02,02,13.60
2017,05,28,02,03,13.60
2017,05,28,02,04,13.60
2017,05,28,02,05,13.60
2017,05,28,02,06,13.60
2017,05,28,02,07,13.60
2017,05,28,02,08,13.60
2017,05,28,02,09,13.60
2017,05,28,02,10,13.60
2017,05,28,02,11,13.60
2017,05,28,02,12,13.60
2017,05,28,02,13,13.50
2017,05,28,02,14,13.50
2017,05,28,02,15,13.50
2017,05,28,02,16,13.50
2017,05,28,02,17,13.40
2017,05,28,02,18,13.40
2017,05,28,02,19,13.40
2017,05,28,02,20,13.40
2017,05,28,02,21,13.40
2017,05,28,02,22,13.30
2017,05,28,02,23,13.30
2017,05,28,02,24,13.30
2017,05,28,02,25,13.30
2017,05,28,02,26,13.30
2017,05,28,02,27,13.20
2017,05,28,02,28,13.20
2017,05,28,02,29,13.20
2017,05,28,02,30,13.20
2017,05,28,02,31,13.20
2017,05,28,02,32,13.20
2017,05,28,02,33,13.10
2017,05,28,02,34,13.10
2017,05,28,02,35,13.10
2017,05,28,02,36,13.10
2017,05,28,02,37,13.00
2017,05,28,02,38,13.00
2017,05,28,02,39,12.90
2017,05,28,02,40,12.90
2017,05,28,02,41,12.90
2017,05,28,02,42,12.90
2017,05,28,02,43,12.80
2017,05,28,02,44,12.80
2017,05,28,02,45,12.80
2017,05,28,02,46,12.80
2017,05,28,02,47,12.80
2017,05,28,02,48,12.80
2017,05,28,02,49,12.70
2017,05,28,02,50,12.70
2017,05,28,02,51,12.70
2017,05,28,02,52,12.70
2017,05,28,02,53,12.60
2017,05,28,02,54,12.60
2017,05,28,02,55,12.60
2017,05,28,02,56,12.60
2017,05,28,02,57,12.60
2017,05,28,02,58,12.50
2017,05,28,02,59,12.50
2017,05,28,03,00,12.50
2017,05,28,03,01,12.50
2017,05,28,03,02,12.50
2017,05,28,03,03,12.50
2017,05,28,03,04,12.50
2017,05,28,03,05,12.50
2017,05,28,03,06,12.60
2017,05,28,03,07,12.60
2017,05,28,03,08,12.60
2017,05,28,03,09,12.60
2017,05,28,03,10,12.50
2017,05,28,03,11,12.50
2017,05,28,03,12,12.50
2017,05,28,03,13,12.50
2017,05,28,03,14,12.50
2017,05,28,03,15,12.50
2017,05,28,03,16,12.40
2017,05,28,03,17,12.40
2017,05,28,03,18,12.40
2017,05,28,03,19,12.40
2017,05,28,03,20,12.40
2017,05,28,03,21,12.40
2017,05,28,03,22,12.40
2017,05,28,03,23,12.40
2017,05,28,03,24,12.40
2017,05,28,03,25,12.30
2017,05,28,03,26,12.30
2017,05,28,03,27,12.30
2017,05,28,03,28,12.30
2017,05,28,03,29,12.30
2017,05,28,03,30,12.30
2017,05,28,03,31,12.20
2017,05,28,03,32,12.20
2017,05,28,03,33,12.20
2017,05,28,03,34,12.20
2017,05,28,03,35,12.20
2017,05,28,03,36,12.20
2017,05,28,03,37,12.20
2017,05,28,03,38,12.10
2017,05,28,03,39,12.10
2017,05,28,03,40,12.10
2017,05,28,03,41,12.10
2017,05,28,03,42,12.10
2017,05,28,03,43,12.10
2017,05,28,03,44,12.10
2017,05,28,03,45,12.10
2017,05,28,03,46,12.00
2017,05,28,03,47,12.00
2017,05,28,03,48,12.00
2017,05,28,03,49,12.00
2017,05,28,03,50,11.90
2017,05,28,03,51,11.90
2017,05,28,03,52,11.90
2017,05,28,03,53,11.90
2017,05,28,03,54,11.90
2017,05,28,03,55,11.90
2017,05,28,03,56,11.90
2017,05,28,03,57,11.90
2017,05,28,03,58,11.80
2017,05,28,03,59,11.80
2017,05,28,04,00,11.80
2017,05,28,04,01,11.80
2017,05,28,04,02,11.80
2017,05,28,04,03,11.80
2017,05,28,04,04,11.70
2017,05,28,04,05,11.70
2017,05,28,04,06,11.70
2017,05,28,04,07,11.70
2017,05,28,04,08,11.70
2017,05,28,04,09,11.70
2017,05,28,04,10,11.70
2017,05,28,04,11,11.70
2017,05,28,04,12,11.70
2017,05,28,04,13,11.70
2017,05,28,04,14,11.70
2017,05,28,04,15,11.60
2017,05,28,04,16,11.60
2017,05,28,04,17,11.60
2017,05,28,04,18,11.60
2017,05,28,04,19,11.60
2017,05,28,04,20,11.50
2017,05,28,04,21,11.50
2017,05,28,04,22,11.50
2017,05,28,04,23,11.40
2017,05,28,04,24,11.40
2017,05,28,04,25,11.40
2017,05,28,04,26,11.30
2017,05,28,04,27,11.30
2017,05,28,04,28,11.30
2017,05,28,04,29,11.30
2017,05,28,04,30,11.30
2017,05,28,04,31,11.30
2017,05,28,04,32,11.30
2017,05,28,04,33,11.30
2017,05,28,04,34,11.30
2017,05,28,04,35,11.30
2017,05,28,04,36,11.30
2017,05,28,04,37,11.30
2017,05,28,04,38,11.30
2017,05,28,04,39,11.30
2017,05,28,04,40,11.30
2017,05,28,04,41,11.30
2017,05,28,04,42,11.30
2017,05,28,04,43,11.30
2017,05,28,04,44,11.30
2017,05,28,04,45,11.30
2017,05,28,04,46,11.30
2017,05,28,04,47,11.20
2017,05,28,04,48,11.20
2017,05,28,04,49,11.20
2017,05,28,04,50,11.20
2017,05,28,04,51,11.20
2017,05,28,04,52,11.20
2017,05,28,04,53,11.20
2017,05,28,04,54,11.20
2017,05,28,04,55,11.20
2017,05,28,04,56,11.20
2017,05,28,04,57,11.20
2017,05,28,04,58,11.20
2017,05,28,04,59,11.20
2017,05,28,05,00,11.10
2017,05,28,05,01,11.10
2017,05,28,05,02,11.10
2017,05,28,05,03,11.10
2017,05,28,05,04,11.00
2017,05,28,05,05,11.00
2017,05,28,05,06,11.00
2017,05,28,05,07,10.90
2017,05,28,05,08,10.90
2017,05,28,05,09,10.90
2017,05,28,05,10,10.90
2017,05,28,05,11,10.90
2017,05,28,05,12,10.80
2017,05,28,05,13,10.80
2017,05,28,05,14,10.80
2017,05,28,05,15,10.80
2017,05,28,05,16,10.70
2017,05,28,05,17,10.70
2017,05,28,05,18,10.70
2017,05,28,05,19,10.70
2017,05,28,05,20,10.70
2017,05,28,05,21,10.60
2017,05,28,05,22,10.60
2017,05,28,05,23,10.60
2017,05,28,05,24,10.60
2017,05,28,05,25,10.60
2017,05,28,05,26,10.60
2017,05,28,05,27,10.60
2017,05,28,05,28,10.50
2017,05,28,05,29,10.60
2017,05,28,05,30,10.60
2017,05,28,05,31,10.60
2017,05,28,05,32,10.60
2017,05,28,05,33,10.60
2017,05,28,05,34,10.60
2017,05,28,05,35,10.60
2017,05,28,05,36,10.60
2017,05,28,05,37,10.60
2017,05,28,05,38,10.60
2017,05,28,05,39,10.60
2017,05,28,05,40,10.60
2017,05,28,05,41,10.60
2017,05,28,05,42,10.60
2017,05,28,05,43,10.60
2017,05,28,05,44,10.60
2017,05,28,05,45,10.60
2017,05,28,05,46,10.60
2017,05,28,05,47,10.60
2017,05,28,05,48,10.60
2017,05,28,05,49,10.60
2017,05,28,05,50,10.60
2017,05,28,05,51,10.60
2017,05,28,05,52,10.60
2017,05,28,05,53,10.60
2017,05,28,05,54,10.60
2017,05,28,05,55,10.60
2017,05,28,05,56,10.60
2017,05,28,05,57,10.60
2017,05,28,05,58,10.60
2017,05,28,05,59,10.60
2017,05,28,06,00,10.60
2017,05,28,06,01,10.60
2017,05,28,06,02,10.60
2017,05,28,06,03,10.60
2017,05,28,06,04,10.60
2017,05,28,06,05,10.60
2017,05,28,06,06,10.60
2017,05,28,06,07,10.50
2017,05,28,06,08,10.50
2017,05,28,06,09,10.50
2017,05,28,06,10,10.50
2017,05,28,06,11,10.50
2017,05,28,06,12,10.50
2017,05,28,06,13,10.50
2017,05,28,06,14,10.50
2017,05,28,06,15,10.50
2017,05,28,06,16,10.50
2017,05,28,06,17,10.50
2017,05,28,06,18,10.50
2017,05,28,06,19,10.60
2017,05,28,06,20,10.60
2017,05,28,06,21,10.60
2017,05,28,06,22,10.60
2017,05,28,06,23,10.70
2017,05,28,06,24,10.70
2017,05,28,06,25,10.70
2017,05,28,06,26,10.70
2017,05,28,06,27,10.70
2017,05,28,06,28,10.70
2017,05,28,06,29,10.70
2017,05,28,06,30,10.70
2017,05,28,06,31,10.70
2017,05,28,06,32,10.70
2017,05,28,06,33,10.70
2017,05,28,06,34,10.80
2017,05,28,06,35,10.80
2017,05,28,06,36,10.80
2017,05,28,06,37,10.80
2017,05,28,06,38,10.80
2017,05,28,06,39,11.00
2017,05,28,06,40,11.00
2017,05,28,06,41,11.00
2017,05,28,06,42,11.10
2017,05,28,06,43,11.10
2017,05,28,06,44,11.20
2017,05,28,06,45,11.20
2017,05,28,06,46,11.30
2017,05,28,06,47,11.30
2017,05,28,06,48,11.30
2017,05,28,06,49,11.30
2017,05,28,06,50,11.40
2017,05,28,06,51,11.40
2017,05,28,06,52,11.40
2017,05,28,06,53,11.50
2017,05,28,06,54,11.50
2017,05,28,06,55,11.60
2017,05,28,06,56,11.60
2017,05,28,06,57,11.70
2017,05,28,06,58,11.70
2017,05,28,06,59,11.70
2017,05,28,07,00,11.70
2017,05,28,07,01,11.80
2017,05,28,07,02,11.80
2017,05,28,07,03,11.80
2017,05,28,07,04,11.80
2017,05,28,07,05,11.90
2017,05,28,07,06,11.90
2017,05,28,07,07,11.90
2017,05,28,07,08,11.90
2017,05,28,07,09,12.00
2017,05,28,07,10,12.00
2017,05,28,07,11,12.00
2017,05,28,07,12,12.10
2017,05,28,07,13,12.10
2017,05,28,07,14,12.20
2017,05,28,07,15,12.20
2017,05,28,07,16,12.20
2017,05,28,07,17,12.30
2017,05,28,07,18,12.30
2017,05,28,07,19,12.40
2017,05,28,07,20,12.50
2017,05,28,07,21,12.50
2017,05,28,07,22,12.60
2017,05,28,07,23,12.70
2017,05,28,07,24,12.80
2017,05,28,07,25,13.00
2017,05,28,07,26,13.10
2017,05,28,07,27,13.20
2017,05,28,07,28,13.40
2017,05,28,07,29,13.50
2017,05,28,07,30,13.60
2017,05,28,07,31,13.70
2017,05,28,07,32,13.80
2017,05,28,07,33,13.90
2017,05,28,07,34,13.90
2017,05,28,07,35,14.00
2017,05,28,07,36,14.00
2017,05,28,07,37,14.00
2017,05,28,07,38,14.10
2017,05,28,07,39,14.10
2017,05,28,07,40,14.20
2017,05,28,07,41,14.30
2017,05,28,07,42,14.40
2017,05,28,07,43,14.50
2017,05,28,07,44,14.50
2017,05,28,07,45,14.60
2017,05,28,07,46,14.70
2017,05,28,07,47,14.70
2017,05,28,07,48,14.70
2017,05,28,07,49,14.70
2017,05,28,07,50,14.70
2017,05,28,07,51,14.70
2017,05,28,07,52,14.80
2017,05,28,07,53,14.80
2017,05,28,07,54,14.80
2017,05,28,07,55,14.90
2017,05,28,07,56,14.90
2017,05,28,07,57,15.00
2017,05,28,07,58,15.10
2017,05,28,07,59,15.10
2017,05,28,08,00,15.20
2017,05,28,08,01,15.20
2017,05,28,08,02,15.20
2017,05,28,08,03,15.20
2017,05,28,08,04,15.20
2017,05,28,08,05,15.30
2017,05,28,08,06,15.30
2017,05,28,08,07,15.40
2017,05,28,08,08,15.40
2017,05,28,08,09,15.50
2017,05,28,08,10,15.60
2017,05,28,08,11,15.60
2017,05,28,08,12,15.60
2017,05,28,08,13,15.70
2017,05,28,08,14,15.70
2017,05,28,08,15,15.70
2017,05,28,08,16,15.80
2017,05,28,08,17,15.90
2017,05,28,08,18,16.00
2017,05,28,08,19,16.10
2017,05,28,08,20,16.10
2017,05,28,08,21,16.10
2017,05,28,08,22,16.20
2017,05,28,08,23,16.20
2017,05,28,08,24,16.20
2017,05,28,08,25,16.30
2017,05,28,08,26,16.30
2017,05,28,08,27,16.30
2017,05,28,08,28,16.30
2017,05,28,08,29,16.30
2017,05,28,08,30,16.30
2017,05,28,08,31,16.30
2017,05,28,08,32,16.30
2017,05,28,08,33,16.40
2017,05,28,08,34,16.50
2017,05,28,08,35,16.60
2017,05,28,08,36,16.80
2017,05,28,08,37,16.80
2017,05,28,08,38,17.00
2017,05,28,08,39,17.00
2017,05,28,08,40,17.10
2017,05,28,08,41,17.20
2017,05,28,08,42,17.30
2017,05,28,08,43,17.30
2017,05,28,08,44,17.30
2017,05,28,08,45,17.30
2017,05,28,08,46,17.30
2017,05,28,08,47,17.30
2017,05,28,08,48,17.40
2017,05,28,08,49,17.40
2017,05,28,08,50,17.50
2017,05,28,08,51,17.50
2017,05,28,08,52,17.60
2017,05,28,08,53,17.70
2017,05,28,08,54,17.80
2017,05,28,08,55,17.90
2017,05,28,08,56,18.00
2017,05,28,08,57,18.10
2017,05,28,08,58,18.10
2017,05,28,08,59,18.20
2017,05,28,09,00,18.20
2017,05,28,09,01,18.30
2017,05,28,09,02,18.30
2017,05,28,09,03,18.30
2017,05,28,09,04,18.30
2017,05,28,09,05,18.30
2017,05,28,09,06,18.30
2017,05,28,09,07,18.20
2017,05,28,09,08,18.20
2017,05,28,09,09,18.20
2017,05,28,09,10,18.20
2017,05,28,09,11,18.20
2017,05,28,09,12,18.20
2017,05,28,09,13,18.20
2017,05,28,09,14,18.20
2017,05,28,09,15,18.30
2017,05,28,09,16,18.30
2017,05,28,09,17,18.40
2017,05,28,09,18,18.40
2017,05,28,09,19,18.40
2017,05,28,09,20,18.30
2017,05,28,09,21,18.30
2017,05,28,09,22,18.30
2017,05,28,09,23,18.30
2017,05,28,09,24,18.30
2017,05,28,09,25,18.30
2017,05,28,09,26,18.30
2017,05,28,09,27,18.30
2017,05,28,09,28,18.30
2017,05,28,09,29,18.40
2017,05,28,09,30,18.40
2017,05,28,09,31,18.50
2017,05,28,09,32,18.50
2017,05,28,09,33,18.70
2017,05,28,09,34,18.80
2017,05,28,09,35,19.00
2017,05,28,09,36,19.10
2017,05,28,09,37,19.30
2017,05,28,09,38,19.50
2017,05,28,09,39,19.60
2017,05,28,09,40,19.80
2017,05,28,09,41,19.80
2017,05,28,09,42,19.90
2017,05,28,09,43,19.90
2017,05,28,09,44,20.00
2017,05,28,09,45,20.10
2017,05,28,09,46,20.30
2017,05,28,09,47,20.30
2017,05,28,09,48,20.30
2017,05,28,09,49,20.20
2017,05,28,09,50,20.20
2017,05,28,09,51,20.20
2017,05,28,09,52,20.20
2017,05,28,09,53,20.30
2017,05,28,09,54,20.30
2017,05,28,09,55,20.30
2017,05,28,09,56,20.30
2017,05,28,09,57,20.30
2017,05,28,09,58,20.30
2017,05,28,09,59,20.30
2017,05,28,10,00,20.40
2017,05,28,10,01,20.40
2017,05,28,10,02,20.50
2017,05,28,10,03,20.50
2017,05,28,10,04,20.50
2017,05,28,10,05,20.50
2017,05,28,10,06,20.40
2017,05,28,10,07,20.40
2017,05,28,10,08,20.40
2017,05,28,10,09,20.40
2017,05,28,10,10,20.30
2017,05,28,10,11,20.30
2017,05,28,10,12,20.40
2017,05,28,10,13,20.40
2017,05,28,10,14,20.50
2017,05,28,10,15,20.50
2017,05,28,10,16,20.60
2017,05,28,10,17,20.60
2017,05,28,10,18,20.70
2017,05,28,10,19,20.80
2017,05,28,10,20,20.80
2017,05,28,10,21,20.90
2017,05,28,10,22,21.00
2017,05,28,10,23,21.10
2017,05,28,10,24,21.20
2017,05,28,10,25,21.20
2017,05,28,10,26,21.20
2017,05,28,10,27,21.20
2017,05,28,10,28,21.20
2017,05,28,10,29,21.20
2017,05,28,10,30,21.20
2017,05,28,10,31,21.20
2017,05,28,10,32,21.30
2017,05,28,10,33,21.30
2017,05,28,10,34,21.30
2017,05,28,10,35,21.40
2017,05,28,10,36,21.50
2017,05,28,10,37,21.60
2017,05,28,10,38,21.70
2017,05,28,10,39,21.80
2017,05,28,10,40,21.90
2017,05,28,10,41,22.10
2017,05,28,10,42,22.20
2017,05,28,10,43,22.30
2017,05,28,10,44,22.40
2017,05,28,10,45,22.50
2017,05,28,10,46,22.70
2017,05,28,10,47,22.80
2017,05,28,10,48,22.90
2017,05,28,10,49,23.10
2017,05,28,10,50,23.20
2017,05,28,10,51,23.30
2017,05,28,10,52,23.40
2017,05,28,10,53,23.40
2017,05,28,10,54,23.40
2017,05,28,10,55,23.50
2017,05,28,10,56,23.60
2017,05,28,10,57,23.70
2017,05,28,10,58,23.80
2017,05,28,10,59,23.90
2017,05,28,11,00,23.90
2017,05,28,11,01,24.00
2017,05,28,11,02,24.10
2017,05,28,11,03,24.20
2017,05,28,11,04,24.20
2017,05,28,11,05,24.20
2017,05,28,11,06,24.10
2017,05,28,11,07,24.10
2017,05,28,11,08,24.10
2017,05,28,11,09,24.00
2017,05,28,11,10,24.00
2017,05,28,11,11,23.90
2017,05,28,11,12,23.90
2017,05,28,11,13,23.90
2017,05,28,11,14,23.80
2017,05,28,11,15,23.80
2017,05,28,11,16,23.80
2017,05,28,11,17,23.80
2017,05,28,11,18,23.90
2017,05,28,11,19,24.00
2017,05,28,11,20,24.10
2017,05,28,11,21,24.20
2017,05,28,11,22,24.30
2017,05,28,11,23,24.30
2017,05,28,11,24,24.20
2017,05,28,11,25,24.10
2017,05,28,11,26,24.10
2017,05,28,11,27,24.00
2017,05,28,11,28,23.90
2017,05,28,11,29,24.00
2017,05,28,11,30,24.10
2017,05,28,11,31,24.10
2017,05,28,11,32,24.20
2017,05,28,11,33,24.30
2017,05,28,11,34,24.40
2017,05,28,11,35,24.50
2017,05,28,11,36,24.50
2017,05,28,11,37,24.50
2017,05,28,11,38,24.60
2017,05,28,11,39,24.60
2017,05,28,11,40,24.70
2017,05,28,11,41,24.80
2017,05,28,11,42,24.80
2017,05,28,11,43,24.90
2017,05,28,11,44,24.90
2017,05,28,11,45,24.90
2017,05,28,11,46,24.80
2017,05,28,11,47,24.80
2017,05,28,11,48,24.80
2017,05,28,11,49,24.80
2017,05,28,11,50,24.90
2017,05,28,11,51,24.90
2017,05,28,11,52,25.00
2017,05,28,11,53,25.10
2017,05,28,11,54,25.20
2017,05,28,11,55,25.20
2017,05,28,11,56,25.20
2017,05,28,11,57,25.30
2017,05,28,11,58,25.30
2017,05,28,11,59,25.40
2017,05,28,12,00,25.40
2017,05,28,12,01,25.40
2017,05,28,12,02,25.40
2017,05,28,12,03,25.30
2017,05,28,12,04,25.30
2017,05,28,12,05,25.30
2017,05,28,12,06,25.20
2017,05,28,12,07,25.20
2017,05,28,12,08,25.20
2017,05,28,12,09,25.20
2017,05,28,12,10,25.20
2017,05,28,12,11,25.20
2017,05,28,12,12,25.20
2017,05,28,12,13,25.20
2017,05,28,12,14,25.20
2017,05,28,12,15,25.20
2017,05,28,12,16,25.10
2017,05,28,12,17,25.10
2017,05,28,12,18,25.20
2017,05,28,12,19,25.20
2017,05,28,12,20,25.20
2017,05,28,12,21,25.20
2017,05,28,12,22,25.10
2017,05,28,12,23,25.10
2017,05,28,12,24,25.10
2017,05,28,12,25,25.10
2017,05,28,12,26,25.10
2017,05,28,12,27,25.10
2017,05,28,12,28,25.10
2017,05,28,12,29,25.20
2017,05,28,12,30,25.20
2017,05,28,12,31,25.20
2017,05,28,12,32,25.30
2017,05,28,12,33,25.30
2017,05,28,12,34,25.30
2017,05,28,12,35,25.30
2017,05,28,12,36,25.30
2017,05,28,12,37,25.30
2017,05,28,12,38,25.20
2017,05,28,12,39,25.20
2017,05,28,12,40,25.20
2017,05,28,12,41,25.20
2017,05,28,12,42,25.30
2017,05,28,12,43,25.30
2017,05,28,12,44,25.40
2017,05,28,12,45,25.50
2017,05,28,12,46,25.60
2017,05,28,12,47,25.70
2017,05,28,12,48,25.80
2017,05,28,12,49,25.90
2017,05,28,12,50,25.90
2017,05,28,12,51,25.90
2017,05,28,12,52,25.90
2017,05,28,12,53,25.80
2017,05,28,12,54,25.70
2017,05,28,12,55,25.70
2017,05,28,12,56,25.70
2017,05,28,12,57,25.70
2017,05,28,12,58,25.70
2017,05,28,12,59,25.70
2017,05,28,13,00,25.70
2017,05,28,13,01,25.80
2017,05,28,13,02,25.80
2017,05,28,13,03,25.90
2017,05,28,13,04,25.90
2017,05,28,13,05,25.90
2017,05,28,13,06,25.90
2017,05,28,13,07,25.80
2017,05,28,13,08,25.80
2017,05,28,13,09,25.70
2017,05,28,13,10,25.70
2017,05,28,13,11,25.80
2017,05,28,13,12,25.80
2017,05,28,13,13,25.90
2017,05,28,13,14,26.00
2017,05,28,13,15,26.10
2017,05,28,13,16,26.20
2017,05,28,13,17,26.30
2017,05,28,13,18,26.50
2017,05,28,13,19,26.60
2017,05,28,13,20,26.70
2017,05,28,13,21,26.80
2017,05,28,13,22,26.80
2017,05,28,13,23,26.90
2017,05,28,13,24,27.00
2017,05,28,13,25,27.10
2017,05,28,13,26,27.30
2017,05,28,13,27,27.40
2017,05,28,13,28,27.50
2017,05,28,13,29,27.50
2017,05,28,13,30,27.40
2017,05,28,13,31,27.30
2017,05,28,13,32,27.30
2017,05,28,13,33,27.20
2017,05,28,13,34,27.30
2017,05,28,13,35,27.30
2017,05,28,13,36,27.20
2017,05,28,13,37,27.10
2017,05,28,13,38,27.00
2017,05,28,13,39,26.90
2017,05,28,13,40,26.90
2017,05,28,13,41,26.90
2017,05,28,13,42,26.90
2017,05,28,13,43,27.00
2017,05,28,13,44,27.00
2017,05,28,13,45,27.00
2017,05,28,13,46,27.00
2017,05,28,13,47,27.00
2017,05,28,13,48,27.10
2017,05,28,13,49,27.20
2017,05,28,13,50,27.30
2017,05,28,13,51,27.40
2017,05,28,13,52,27.50
2017,05,28,13,53,27.70
2017,05,28,13,54,27.80
2017,05,28,13,55,28.00
2017,05,28,13,56,28.20
2017,05,28,13,57,28.30
2017,05,28,13,58,28.30
2017,05,28,13,59,28.30
2017,05,28,14,00,28.20
2017,05,28,14,01,28.20
2017,05,28,14,02,28.20
2017,05,28,14,03,28.30
2017,05,28,14,04,28.30
2017,05,28,14,05,28.30
2017,05,28,14,06,28.30
2017,05,28,14,07,28.40
2017,05,28,14,08,28.40
2017,05,28,14,09,28.50
2017,05,28,14,10,28.70
2017,05,28,14,11,28.80
2017,05,28,14,12,28.90
2017,05,28,14,13,29.00
2017,05,28,14,14,29.00
2017,05,28,14,15,29.10
2017,05,28,14,16,29.20
2017,05,28,14,17,29.20
2017,05,28,14,18,29.20
2017,05,28,14,19,29.20
2017,05,28,14,20,29.20
2017,05,28,14,21,29.20
2017,05,28,14,22,29.30
2017,05,28,14,23,29.50
2017,05,28,14,24,29.50
2017,05,28,14,25,29.50
2017,05,28,14,26,29.50
2017,05,28,14,27,29.50
2017,05,28,14,28,29.50
2017,05,28,14,29,29.40
2017,05,28,14,30,29.40
2017,05,28,14,31,29.40
2017,05,28,14,32,29.40
2017,05,28,14,33,29.40
2017,05,28,14,34,29.30
2017,05,28,14,35,29.20
2017,05,28,14,36,29.20
2017,05,28,14,37,29.20
2017,05,28,14,38,29.10
2017,05,28,14,39,29.00
2017,05,28,14,40,29.00
2017,05,28,14,41,29.00
2017,05,28,14,42,29.00
2017,05,28,14,43,28.90
2017,05,28,14,44,28.90
2017,05,28,14,45,28.90
2017,05,28,14,46,28.90
2017,05,28,14,47,28.90
2017,05,28,14,48,28.90
2017,05,28,14,49,29.00
2017,05,28,14,50,28.90
2017,05,28,14,51,28.90
2017,05,28,14,52,28.80
2017,05,28,14,53,28.80
2017,05,28,14,54,28.80
2017,05,28,14,55,28.90
2017,05,28,14,56,29.00
2017,05,28,14,57,29.10
2017,05,28,14,58,29.10
2017,05,28,14,59,29.20
2017,05,28,15,00,29.20
2017,05,28,15,01,29.20
2017,05,28,15,02,29.10
2017,05,28,15,03,29.10
2017,05,28,15,04,29.10
2017,05,28,15,05,29.10
2017,05,28,15,06,29.10
2017,05,28,15,07,29.20
2017,05,28,15,08,29.20
2017,05,28,15,09,29.30
2017,05,28,15,10,29.40
2017,05,28,15,11,29.40
2017,05,28,15,12,29.50
2017,05,28,15,13,29.60
2017,05,28,15,14,29.80
2017,05,28,15,15,29.80
2017,05,28,15,16,29.90
2017,05,28,15,17,29.90
2017,05,28,15,18,30.00
2017,05,28,15,19,30.10
2017,05,28,15,20,30.10
2017,05,28,15,21,30.20
2017,05,28,15,22,30.20
2017,05,28,15,23,30.20
2017,05,28,15,24,30.20
2017,05,28,15,25,30.20
2017,05,28,15,26,30.20
2017,05,28,15,27,30.10
2017,05,28,15,28,30.00
2017,05,28,15,29,30.00
2017,05,28,15,30,30.00
2017,05,28,15,31,29.90
2017,05,28,15,32,29.90
2017,05,28,15,33,29.90
2017,05,28,15,34,30.00
2017,05,28,15,35,29.90
2017,05,28,15,36,30.00
2017,05,28,15,37,30.00
2017,05,28,15,38,30.10
2017,05,28,15,39,30.10
2017,05,28,15,40,30.10
2017,05,28,15,41,30.10
2017,05,28,15,42,30.20
2017,05,28,15,43,30.30
2017,05,28,15,44,30.30
2017,05,28,15,45,30.30
2017,05,28,15,46,30.30
2017,05,28,15,47,30.30
2017,05,28,15,48,30.30
2017,05,28,15,49,30.30
2017,05,28,15,50,30.30
2017,05,28,15,51,30.30
2017,05,28,15,52,30.20
2017,05,28,15,53,30.20
2017,05,28,15,54,30.20
2017,05,28,15,55,30.10
2017,05,28,15,56,30.10
2017,05,28,15,57,30.10
2017,05,28,15,58,30.10
2017,05,28,15,59,30.10
2017,05,28,16,00,30.20
2017,05,28,16,01,30.30
2017,05,28,16,02,30.30
2017,05,28,16,03,30.40
2017,05,28,16,04,30.40
2017,05,28,16,05,30.50
2017,05,28,16,06,30.60
2017,05,28,16,07,30.60
2017,05,28,16,08,30.60
2017,05,28,16,09,30.50
2017,05,28,16,10,30.40
2017,05,28,16,11,30.40
2017,05,28,16,12,30.40
2017,05,28,16,13,30.40
2017,05,28,16,14,30.40
2017,05,28,16,15,30.40
2017,05,28,16,16,30.40
2017,05,28,16,17,30.40
2017,05,28,16,18,30.40
2017,05,28,16,19,30.40
2017,05,28,16,20,30.30
2017,05,28,16,21,30.30
2017,05,28,16,22,30.30
2017,05,28,16,23,30.30
2017,05,28,16,24,30.20
2017,05,28,16,25,30.20
2017,05,28,16,26,30.20
2017,05,28,16,27,30.20
2017,05,28,16,28,30.30
2017,05,28,16,29,30.30
2017,05,28,16,30,30.30
2017,05,28,16,31,30.30
2017,05,28,16,32,30.40
2017,05,28,16,33,30.40
2017,05,28,16,34,30.40
2017,05,28,16,35,30.50
2017,05,28,16,36,30.60
2017,05,28,16,37,30.70
2017,05,28,16,38,30.80
2017,05,28,16,39,30.90
2017,05,28,16,40,30.90
2017,05,28,16,41,30.90
2017,05,28,16,42,30.90
2017,05,28,16,43,30.90
2017,05,28,16,44,31.00
2017,05,28,16,45,31.00
2017,05,28,16,46,31.10
2017,05,28,16,47,31.20
2017,05,28,16,48,31.40
2017,05,28,16,49,31.50
2017,05,28,16,50,31.50
2017,05,28,16,51,31.50
2017,05,28,16,52,31.40
2017,05,28,16,53,31.40
2017,05,28,16,54,31.50
2017,05,28,16,55,31.50
2017,05,28,16,56,31.50
2017,05,28,16,57,31.50
2017,05,28,16,58,31.50
2017,05,28,16,59,31.50
2017,05,28,17,00,31.50
2017,05,28,17,01,31.50
2017,05,28,17,02,31.50
2017,05,28,17,03,31.40
2017,05,28,17,04,31.20
2017,05,28,17,05,31.00
2017,05,28,17,06,30.80
2017,05,28,17,07,30.60
2017,05,28,17,08,30.40
2017,05,28,17,09,30.30
2017,05,28,17,10,30.20
2017,05,28,17,11,30.20
2017,05,28,17,12,30.10
2017,05,28,17,13,30.10
2017,05,28,17,14,30.10
2017,05,28,17,15,30.10
2017,05,28,17,16,30.10
2017,05,28,17,17,30.10
2017,05,28,17,18,30.10
2017,05,28,17,19,30.10